W4SNA-4 Weather Reports


Display with metric or nautical units.
time (UTC)temp
F
wind
direction
speed
MPH
gust
MPH
rain 1hr
in
rain 24hr
in
rain mn
in
humidity
%
barometer
mb
20260901220046 89 0 0.0 0.0 0.00 0.00 0.00 60 1013.1
20260901215310 89 0 0.0 0.0 0.00 0.00 0.00 57 1013.2
20260901214810 90 0 0.0 0.0 0.00 0.00 0.00 58 1013.2
20260901214311 90 0 0.0 0.0 0.00 0.00 0.00 57 1013.2
20260901213810 90 0 0.0 0.0 0.00 0.00 0.00 57 1013.2
20260901212852 90 0 0.0 0.0 0.00 0.00 0.00 58 1013.2
20260901212351 90 0 0.0 0.0 0.00 0.00 0.00 58 1013.2
20260901211852 90 0 0.0 0.0 0.00 0.00 0.00 57 1013.2
20260901211352 90 0 0.0 0.0 0.00 0.00 0.00 56 1013.2
20260901210851 90 0 0.0 0.0 0.00 0.00 0.00 57 1013.2
20260901210352 90 0 0.0 0.0 0.00 0.00 0.00 57 1013.2
20260901205856 90 0 0.0 0.0 0.00 0.00 0.00 57 1013.2
20260901205352 90 0 0.0 0.0 0.00 0.00 0.00 57 1013.2
20260901204852 90 0 0.0 0.0 0.00 0.00 0.00 56 1013.2
20260901204351 90 0 0.0 0.0 0.00 0.00 0.00 58 1013.2
20260901203852 90 0 0.0 0.0 0.00 0.00 0.00 58 1013.2
20260901203355 90 0 0.0 0.0 0.00 0.00 0.00 56 1013.2
20260901202851 90 0 0.0 0.0 0.00 0.00 0.00 55 1013.2
20260901202353 90 0 0.0 0.0 0.00 0.00 0.00 56 1013.4
20260901201854 90 0 0.0 0.0 0.00 0.00 0.00 56 1013.4
20260901182946 89 0 0.0 0.0 0.00 0.00 0.00 57 1014.3
20260901182446 89 0 0.0 0.0 0.00 0.00 0.00 58 1014.3
20260901181945 89 0 0.0 0.0 0.00 0.00 0.00 57 1014.3
20260901181446 89 0 0.0 0.0 0.00 0.00 0.00 60 1014.3
20260901180945 89 0 0.0 0.0 0.00 0.00 0.00 59 1014.4
20260901180446 89 0 0.0 0.0 0.00 0.00 0.00 59 1014.4
20260901175946 89 0 0.0 0.0 0.00 0.00 0.00 61 1014.4
20260901175445 89 0 0.0 0.0 0.00 0.00 0.00 60 1014.6
20260901174946 89 0 0.0 0.0 0.00 0.00 0.00 60 1014.6
20260901174445 89 0 0.0 0.0 0.00 0.00 0.00 63 1014.6
20260901173946 89 0 0.0 0.0 0.00 0.00 0.00 63 1014.5
20260901173447 88 0 0.0 0.0 0.00 0.00 0.00 63 1014.5
20260901172945 88 0 0.0 0.0 0.00 0.00 0.00 67 1014.5
20260901172446 88 0 0.0 0.0 0.00 0.00 0.00 66 1014.7
20260901171945 88 0 0.0 0.0 0.00 0.00 0.00 64 1014.7
20260901171446 88 0 0.0 0.0 0.00 0.00 0.00 64 1014.7
20260901170946 88 0 0.0 0.0 0.00 0.00 0.00 66 1014.8
20260901170446 88 0 0.0 1.0 0.00 0.00 0.00 66 1014.8
20260901165946 88 0 0.0 1.0 0.00 0.00 0.00 67 1014.8
20260901165445 88 0 0.0 0.0 0.00 0.00 0.00 68 1014.9
20260901164945 87 0 0.0 0.0 0.00 0.00 0.00 67 1014.9
20260901164446 88 0 0.0 0.0 0.00 0.00 0.00 67 1014.9
20260901163945 88 0 0.0 0.0 0.00 0.00 0.00 66 1015.1
20260901163446 88 0 0.0 0.0 0.00 0.00 0.00 71 1015.1
20260901162945 87 0 0.0 0.0 0.00 0.00 0.00 70 1015.1
20260901162445 87 0 0.0 0.0 0.00 0.00 0.00 66 1015.3
20260901161946 87 0 0.0 0.0 0.00 0.00 0.00 70 1015.3
20260901161445 87 0 0.0 0.0 0.00 0.00 0.00 69 1015.3
20260901160457 87 0 0.0 0.0 0.00 0.00 0.00 69 1015.4
20260901155957 87 0 0.0 0.0 0.00 0.00 0.00 69 1015.4
20260901155457 87 0 0.0 0.0 0.00 0.00 0.00 71 1015.5
20260901154958 87 0 0.0 0.0 0.00 0.00 0.00 70 1015.5
20260901154501 86 0 0.0 0.0 0.00 0.00 0.00 70 1015.5
20260901153957 86 0 0.0 0.0 0.00 0.00 0.00 70 1015.7
20260901153457 87 0 0.0 0.0 0.00 0.00 0.00 70 1015.7
20260901152957 87 0 0.0 0.0 0.00 0.00 0.00 72 1015.7
20260901152457 86 0 0.0 0.0 0.00 0.00 0.00 72 1015.8
20260901151958 86 0 0.0 0.0 0.00 0.00 0.00 74 1015.8
20260901151457 85 0 0.0 0.0 0.00 0.00 0.00 74 1015.8
20260901150957 85 0 0.0 0.0 0.00 0.00 0.00 74 1015.8
20260901150459 84 0 0.0 0.0 0.00 0.00 0.00 76 1015.8
20260901145957 84 0 0.0 0.0 0.00 0.00 0.00 77 1015.8
20260901145458 83 0 0.0 0.0 0.00 0.00 0.00 78 1015.8
20260901144957 83 0 0.0 0.0 0.00 0.00 0.00 79 1015.8
20260901144503 83 0 0.0 0.0 0.00 0.00 0.00 80 1015.8
20260901143959 82 0 0.0 0.0 0.00 0.00 0.00 80 1015.8
20260901143457 82 0 0.0 0.0 0.00 0.00 0.00 81 1015.8
20260901142957 81 0 0.0 0.0 0.00 0.00 0.00 83 1015.8
20260901142111 80 0 0.0 0.0 0.00 0.00 0.00 83 1015.9
20260901141610 80 0 0.0 0.0 0.00 0.00 0.00 84 1015.9
20260901141112 79 0 0.0 0.0 0.00 0.00 0.00 85 1015.9
20260901140611 78 0 0.0 0.0 0.00 0.00 0.00 87 1015.8
20260901140114 78 0 0.0 0.0 0.00 0.00 0.00 86 1015.8
20260901135611 77 0 0.0 0.0 0.00 0.00 0.00 88 1015.8
20260901135115 76 0 0.0 0.0 0.00 0.00 0.00 89 1015.6
20260901134612 76 0 0.0 0.0 0.00 0.00 0.00 89 1015.6
20260901134536 75 0 0.0 0.0 0.00 0.00 0.00 90 1015.6
20260901134111 75 0 0.0 0.0 0.00 0.00 0.00 90 1015.6
20260901133903 75 0 0.0 0.0 0.00 0.00 0.00 91 1015.6
20260901133610 75 0 0.0 0.0 0.00 0.00 0.00 90 1015.6
20260901133115 75 0 0.0 0.0 0.00 0.00 0.00 91 1015.6
20260901132611 75 0 0.0 0.0 0.00 0.00 0.00 91 1015.6
20260901132121 74 0 0.0 0.0 0.00 0.00 0.00 91 1015.5
20260901131634 74 0 0.0 0.0 0.00 0.00 0.00 92 1015.5
20260901131123 74 0 0.0 0.0 0.00 0.00 0.00 92 1015.5
20260901130614 74 0 0.0 0.0 0.00 0.00 0.00 92 1015.6
20260901130149 74 0 0.0 0.0 0.00 0.00 0.00 92 1015.6
20260901130111 74 0 0.0 0.0 0.00 0.00 0.00 92 1015.6
20260901125526 74 0 0.0 0.0 0.00 0.00 0.00 92 1015.5
20260901125032 74 0 0.0 0.0 0.00 0.00 0.00 92 1015.5
20260901124527 73 0 0.0 0.0 0.00 0.00 0.00 92 1015.5
20260901124030 73 0 0.0 0.0 0.00 0.00 0.00 92 1015.5
20260901123526 73 0 0.0 0.0 0.00 0.00 0.00 92 1015.5
20260901123026 73 0 0.0 0.0 0.00 0.00 0.00 92 1015.5
20260901122526 73 0 0.0 0.0 0.00 0.00 0.00 92 1015.5
20260901122029 73 0 0.0 0.0 0.00 0.00 0.00 92 1015.5
20260901121526 73 0 0.0 0.0 0.00 0.00 0.00 92 1015.5
20260901121027 73 0 0.0 0.0 0.00 0.00 0.00 92 1015.4
20260901120526 73 0 0.0 0.0 0.00 0.00 0.00 93 1015.4
20260901120027 73 0 0.0 0.0 0.00 0.00 0.00 93 1015.4
20260901115528 73 0 0.0 0.0 0.00 0.00 0.00 93 1015.0
20260901115032 73 0 0.0 0.0 0.00 0.00 0.00 93 1015.0
20260901114525 73 0 0.0 0.0 0.00 0.00 0.00 93 1015.0
20260901114032 73 0 0.0 0.0 0.00 0.00 0.00 93 1014.9
20260901113526 73 0 0.0 0.0 0.00 0.00 0.00 93 1014.9
20260901113033 73 0 0.0 0.0 0.00 0.00 0.00 93 1014.9
20260901112534 73 0 0.0 0.0 0.00 0.00 0.00 93 1014.8
20260901112028 73 0 0.0 0.0 0.00 0.00 0.00 93 1014.8
20260901111526 73 0 0.0 0.0 0.00 0.00 0.00 93 1014.8
20260901110525 73 0 0.0 0.0 0.00 0.00 0.00 93 1014.4
20260901110032 74 0 0.0 0.0 0.00 0.00 0.00 93 1014.4
20260901105526 74 0 0.0 0.0 0.00 0.00 0.00 93 1014.3
20260901105004 74 0 0.0 0.0 0.00 0.00 0.00 93 1014.3
20260901104459 74 0 0.0 0.0 0.00 0.00 0.00 93 1014.3
20260901104002 74 0 0.0 0.0 0.00 0.00 0.00 93 1014.4
20260901103503 74 0 0.0 0.0 0.00 0.00 0.00 93 1014.4
20260901102959 74 0 0.0 0.0 0.00 0.00 0.00 93 1014.4
20260901102501 74 0 0.0 0.0 0.00 0.00 0.00 93 1014.4
20260901102004 74 0 0.0 0.0 0.00 0.00 0.00 93 1014.4
20260901101500 74 0 0.0 0.0 0.00 0.00 0.00 93 1014.4
20260901101000 74 0 0.0 0.0 0.00 0.00 0.00 93 1014.3
20260901100504 74 0 0.0 0.0 0.00 0.00 0.00 93 1014.3
20260901095959 74 0 0.0 0.0 0.00 0.00 0.00 93 1014.3
20260901095459 74 0 0.0 0.0 0.00 0.00 0.00 92 1014.3
20260901095001 75 0 0.0 0.0 0.00 0.00 0.00 92 1014.3
20260901094500 75 0 0.0 0.0 0.00 0.00 0.00 91 1014.3
20260901093959 75 0 0.0 0.0 0.00 0.00 0.00 91 1014.3
20260901093500 75 0 0.0 0.0 0.00 0.00 0.00 91 1014.3
20260901092959 76 0 0.0 0.0 0.00 0.00 0.00 90 1014.3
20260901092500 76 0 0.0 0.0 0.00 0.00 0.00 89 1014.2
20260901092006 76 0 0.0 0.0 0.00 0.00 0.00 89 1014.2
20260901091459 76 0 0.0 0.0 0.00 0.00 0.00 88 1014.2
20260901091000 76 0 0.0 0.0 0.00 0.00 0.00 88 1014.3
20260901090504 76 0 0.0 0.0 0.00 0.00 0.00 88 1014.3
20260901090000 76 0 0.0 0.0 0.00 0.00 0.00 88 1014.3
20260901085459 76 0 0.0 0.0 0.00 0.00 0.00 87 1014.4
20260901085003 76 0 0.0 0.0 0.00 0.00 0.00 87 1014.4
20260901084459 77 0 0.0 0.0 0.00 0.00 0.00 87 1014.4
20260901083959 77 0 0.0 0.0 0.00 0.00 0.00 86 1014.4
20260901083504 77 0 0.0 0.0 0.00 0.00 0.00 85 1014.4
20260901083001 77 0 0.0 0.0 0.00 0.00 0.00 84 1014.4
20260901082459 77 0 0.0 0.0 0.00 0.00 0.00 84 1014.4
20260901082003 77 0 0.0 0.0 0.00 0.00 0.00 84 1014.4
20260901081459 77 0 0.0 0.0 0.00 0.00 0.00 84 1014.4
20260901080959 77 0 0.0 0.0 0.00 0.00 0.00 84 1014.4
20260901080459 77 0 0.0 0.0 0.00 0.00 0.00 84 1014.4
20260901080005 77 0 0.0 0.0 0.00 0.00 0.00 84 1014.4
20260901075341 77 0 0.0 0.0 0.00 0.00 0.00 84 1014.4
20260901074841 77 0 0.0 0.0 0.00 0.00 0.00 85 1014.4
20260901074340 77 0 0.0 0.0 0.00 0.00 0.00 85 1014.4
20260901073842 77 0 0.0 0.0 0.00 0.00 0.00 85 1014.5
20260901073341 77 0 0.0 0.0 0.00 0.00 0.00 85 1014.5
20260901072417 77 0 0.0 0.0 0.00 0.00 0.00 86 1014.8
20260901071920 77 0 0.0 0.0 0.00 0.00 0.00 86 1014.8
20260901071410 77 0 0.0 0.0 0.00 0.00 0.00 87 1014.8
20260901070910 77 0 0.0 0.0 0.00 0.00 0.00 87 1014.9
20260901070412 77 0 0.0 0.0 0.00 0.00 0.00 87 1014.9
20260901065916 77 0 0.0 0.0 0.00 0.00 0.00 88 1014.9
20260901065410 77 0 0.0 0.0 0.00 0.00 0.00 88 1014.9
20260901064912 77 0 0.0 0.0 0.00 0.00 0.00 88 1014.9
20260901064419 77 0 0.0 0.0 0.00 0.00 0.00 88 1014.9
20260901063913 77 0 0.0 0.0 0.00 0.00 0.00 88 1015.0
20260901063410 77 0 0.0 0.0 0.00 0.00 0.00 88 1015.0
20260901062923 77 0 0.0 0.0 0.00 0.00 0.00 88 1015.0
20260901062415 78 0 0.0 0.0 0.00 0.00 0.00 88 1015.1
20260901061912 78 0 0.0 0.0 0.00 0.00 0.00 87 1015.1
20260901061413 78 0 0.0 0.0 0.00 0.00 0.00 86 1015.1
20260901060910 78 0 0.0 0.0 0.00 0.00 0.00 86 1015.1
20260901060416 78 0 0.0 0.0 0.00 0.00 0.00 86 1015.1
20260901055912 78 0 0.0 0.0 0.00 0.00 0.00 86 1015.1
20260901055412 78 0 0.0 0.0 0.00 0.00 0.00 86 1015.0
20260901054918 78 0 0.0 0.0 0.00 0.00 0.00 86 1015.0
20260901054410 79 0 0.0 0.0 0.00 0.00 0.00 86 1015.0
20260901053910 79 0 0.0 0.0 0.00 0.00 0.00 86 1015.2
20260901053411 79 0 0.0 0.0 0.00 0.00 0.00 86 1015.2
20260901052910 79 0 0.0 0.0 0.00 0.00 0.00 85 1015.2
20260901051910 79 0 0.0 0.0 0.00 0.00 0.00 85 1015.3
20260901051410 79 0 0.0 0.0 0.00 0.00 0.00 84 1015.3
20260901050910 79 0 0.0 0.0 0.00 0.00 0.00 83 1015.3
20260901050410 80 0 0.0 0.0 0.00 0.00 0.00 80 1015.3
20260901045910 80 0 0.0 0.0 0.00 0.00 0.00 80 1015.3
20260901045411 80 0 0.0 0.0 0.00 0.00 0.00 80 1015.1
20260901044410 80 0 0.0 0.0 0.00 0.00 0.00 78 1015.1
20260901043910 80 0 0.0 0.0 0.00 0.00 0.00 78 1015.1
20260901043418 80 0 0.0 0.0 0.00 0.00 0.00 77 1015.1
20260901042910 80 0 0.0 0.0 0.00 0.00 0.00 78 1015.1
20260901042111 80 0 0.0 0.0 0.00 0.00 0.00 78 1015.1
20260901041611 80 0 0.0 0.0 0.00 0.00 0.00 77 1015.1
20260901041112 80 0 0.0 0.0 0.00 0.00 0.00 79 1015.1
20260901040611 80 0 0.0 0.0 0.00 0.00 0.00 81 1015.0
20260901040112 80 0 0.0 0.0 0.00 0.00 0.00 82 1015.0
20260901035611 80 0 0.0 0.0 0.00 0.00 0.00 82 1015.0
20260901035120 80 0 0.0 0.0 0.00 0.00 0.00 81 1015.0
20260901034612 80 0 0.0 0.0 0.00 0.00 0.00 81 1015.0
20260901034111 80 0 0.0 0.0 0.00 0.00 0.00 81 1015.0
20260901033616 80 0 0.0 0.0 0.00 0.00 0.00 82 1015.0
20260901033118 80 0 0.0 0.0 0.00 0.00 0.00 82 1015.0
20260901032517 80 0 0.0 0.0 0.00 0.00 0.00 82 1015.0
20260901032017 80 0 0.0 0.0 0.00 0.00 0.00 83 1015.0
20260901031517 80 0 0.0 0.0 0.00 0.00 0.00 83 1015.0
20260901031021 80 0 0.0 0.0 0.00 0.00 0.00 83 1015.2
20260901030518 80 0 0.0 0.0 0.00 0.00 0.00 83 1015.2
20260901030021 80 0 0.0 0.0 0.00 0.00 0.00 83 1015.2
20260901025517 80 0 0.0 0.0 0.00 0.00 0.00 83 1015.3
20260901025019 80 0 0.0 0.0 0.00 0.00 0.00 83 1015.3
20260901024518 80 0 0.0 0.0 0.00 0.00 0.00 83 1015.3
20260901024016 80 0 0.0 0.0 0.00 0.00 0.00 83 1015.1
20260901023519 80 0 0.0 0.0 0.00 0.00 0.00 83 1015.1
20260901023021 81 0 0.0 0.0 0.00 0.00 0.00 82 1015.1
20260901022518 81 0 0.0 0.0 0.00 0.00 0.00 83 1015.0
20260901022019 81 0 0.0 0.0 0.00 0.00 0.00 83 1015.0
20260901021519 81 0 0.0 0.0 0.00 0.00 0.00 83 1015.0
20260901021020 81 0 0.0 0.0 0.00 0.00 0.00 83 1015.1
20260901020518 81 0 0.0 0.0 0.00 0.00 0.00 83 1015.1
20260901020017 81 0 0.0 0.0 0.00 0.00 0.00 83 1015.1
20260901015518 81 0 0.0 0.0 0.00 0.00 0.00 82 1015.0
20260901015019 81 0 0.0 0.0 0.00 0.00 0.00 82 1015.0
20260901014519 81 0 0.0 0.0 0.00 0.00 0.00 82 1015.0
20260901014021 81 0 0.0 0.0 0.00 0.00 0.00 82 1014.9
20260901013526 81 0 0.0 0.0 0.00 0.00 0.00 81 1014.9
20260901013021 81 0 0.0 0.0 0.00 0.00 0.00 81 1014.9
20260901012518 81 0 0.0 0.0 0.00 0.00 0.00 81 1014.5
20260901012016 81 0 0.0 0.0 0.00 0.00 0.00 80 1014.5
20260901011435 81 0 0.0 0.0 0.00 0.00 0.00 80 1014.5
20260901010932 81 0 0.0 0.0 0.00 0.00 0.00 80 1014.4
20260901010435 82 0 0.0 0.0 0.00 0.00 0.00 81 1014.4
20260901005936 82 0 0.0 0.0 0.00 0.00 0.00 81 1014.4
20260901005436 82 0 0.0 0.0 0.00 0.00 0.00 82 1014.2
20260901004932 82 0 0.0 0.0 0.00 0.00 0.00 82 1014.2
20260901004432 82 0 0.0 0.0 0.00 0.00 0.00 81 1014.2
20260901003932 82 0 0.0 0.0 0.00 0.00 0.00 81 1014.2
20260901003432 82 0 0.0 0.0 0.00 0.00 0.00 80 1014.2
20260901002937 83 0 0.0 0.0 0.00 0.00 0.00 79 1014.2
20260901002443 83 0 0.0 0.0 0.00 0.00 0.00 78 1014.0
20260901001934 83 0 0.0 0.0 0.00 0.00 0.00 77 1014.0
20260901001432 83 0 0.0 0.0 0.00 0.00 0.00 76 1014.0
20260901000932 83 0 0.0 0.0 0.00 0.00 0.00 76 1014.0
20260901000435 84 0 0.0 0.0 0.00 0.00 0.00 75 1014.0
20260831235932 84 0 0.0 0.0 0.00 0.00 0.00 74 1014.0
20260831235436 84 0 0.0 0.0 0.00 0.00 0.00 73 1013.9
20260831234932 84 0 0.0 0.0 0.00 0.00 0.00 72 1013.9
20260831234441 84 0 0.0 0.0 0.00 0.00 0.00 72 1013.9
20260831233932 85 0 0.0 0.0 0.00 0.00 0.00 71 1013.9
20260831233432 85 0 0.0 0.0 0.00 0.00 0.00 71 1013.9
20260831232934 85 0 0.0 0.0 0.00 0.00 0.00 71 1013.9
20260831232444 85 0 0.0 0.0 0.00 0.00 0.00 70 1014.0
20260831231932 85 0 0.0 0.0 0.00 0.00 0.00 70 1014.0
20260831231434 85 0 0.0 0.0 0.00 0.00 0.00 70 1014.0
20260831231012 85 0 0.0 0.0 0.00 0.00 0.00 70 1013.9
20260831230932 85 0 0.0 0.0 0.00 0.00 0.00 70 1013.9
20260831230433 85 0 0.0 0.0 0.00 0.00 0.00 70 1013.9
20260831225932 85 0 0.0 0.0 0.00 0.00 0.00 70 1013.9
20260831225445 85 0 0.0 0.0 0.00 0.00 0.00 70 1014.2
20260831224932 85 0 0.0 0.0 0.00 0.00 0.00 71 1014.2
20260831224437 86 0 0.0 0.0 0.00 0.00 0.00 71 1014.2
20260831223933 86 0 0.0 0.0 0.00 0.00 0.00 71 1014.3
20260831223432 86 0 0.0 0.0 0.00 0.00 0.00 70 1014.3
20260831222932 86 0 0.0 0.0 0.00 0.00 0.00 70 1014.3
20260831222443 86 0 0.0 0.0 0.00 0.00 0.00 70 1014.4
20260831221932 86 0 0.0 0.0 0.00 0.00 0.00 70 1014.4
20260831221436 86 0 0.0 0.0 0.00 0.00 0.00 70 1014.4
20260831220932 86 0 0.0 0.0 0.00 0.00 0.00 68 1014.5
20260831220432 86 0 0.0 0.0 0.00 0.00 0.00 68 1014.5